Location: Palomar Mountain Lodge
(33.3110°N, 116.8495°W)
Time: 01:15:15
(UTC-08:00)

BlueWalker 3 - Visible Passes

Search period start: 09 February 2026 00:00
Search period end: 19 February 2026 00:00
Orbit: 450 x 461 km, 53.2° (Epoch: 8 February)

Date Brightness Start Highest point End Pass type
(mag) Time Alt. Az. Time Alt. Az. Time Alt. Az.
9 Feb 3.0 18:55:29 10° WNW 18:58:48 39° SW 19:01:03 18° S visible
10 Feb 2.3 18:19:38 10° NW 18:23:07 57° SW 18:26:35 10° SSE visible
13 Feb 5.0 18:11:26 10° W 18:13:00 13° WSW 18:14:35 10° SSW visible
